Regional Weather Roundup
Issued by NWS

Home | Current Version | Previous Version | Graphics & Text | Print | Product List | Glossary Off
Versions: 1 2 3 4 5 6 7 8 9 10 11 12 13 14 15 16 17 18 19 20 21 22 23 24 25 26 27 28 29 30 31 32 33 34 35 36 37 38 39 40 41 42 43 44 45 46 47 48 49 50

000
ASUS43 KDMX 291006
RWRIA

WEATHER ROUNDUP FOR IOWA
NATIONAL WEATHER SERVICE DES MOINES IA
500 AM CDT MON MAY 29 2017

NOTE: "FAIR" INDICATES FEW OR NO CLOUDS BELOW 12,000 FEET WITH NO
SIGNIFICANT WEATHER AND/OR OBSTRUCTIONS TO VISIBILITY.

* - THESE STATIONS ARE NOT NWS STATIONS...THUS NOT UNDER NWS
QUALITY CONTROL.  THEY ALSO DO NOT REPORT WEATHER SUCH
AS PRECIPITATION OR FOG.

IAZ001>003-012>014-020>022-031>034-043>046-291100-
   NORTHWEST IOWA

CITY           SKY/WX    TMP DP  RH WIND       PRES   REMARKS
CARROLL *      PTCLDY    52  48  87 W6        29.91R
CHEROKEE *     CLEAR     50  45  81 W3        29.89R
DENISON *      CLEAR     48  45  87 CALM      29.94R
LE MARS *      PTCLDY    48  45  87 CALM      29.91R
ORANGE CITY *  PTCLDY    48  45  87 NW3       29.90S
SHELDON *      CLEAR     48  45  87 W8        29.87S
SIOUX CITY     PTCLDY    50  46  86 N5        29.93R
SPENCER        CLEAR     50  46  86 W9        29.87S
STORM LAKE *   CLEAR     52  43  71 W9        29.89R
$$

IAZ055>058-069>071-079>083-090>094-291100-
   SOUTHWEST IOWA

CITY           SKY/WX    TMP DP  RH WIND       PRES   REMARKS
ATLANTIC *     PTCLDY    54  46  76 CALM      29.93R
AUDUBON *      CLEAR     50  45  81 CALM      29.93R
CLARINDA *     CLOUDY    61  46  59 VRB3      29.95S
COUNCIL BLFS * CLEAR     55  45  67 W7        29.94R
CRESTON *      CLOUDY    57  46  67 SW5       29.93R
HARLAN  *      CLEAR     52  45  76 SW5       29.96R
LAMONI         PTCLDY    60  44  55 SW13      29.90R
RED OAK *      CLOUDY    61  46  59 VRB6      29.93R
SHENANDOAH *   CLOUDY    57  50  77 SW3       29.93F
$$

IAZ047>049-059>061-072>074-084-291100-
   CENTRAL IOWA

CITY           SKY/WX    TMP DP  RH WIND       PRES   REMARKS
AMES           CLEAR     52  47  83 CALM      29.89R
ANKENY *       CLOUDY    57  48  72 NW6       29.91R
BOONE *        PTCLDY    54 N/A N/A W6        29.89R
CHARITON *     CLOUDY    57  46  67 W7        29.89R
DES MOINES     CLOUDY    57  49  74 NW5       29.90R
GRINNELL*      CLOUDY    53  47  82 NW5       29.89R
KNOXVILLE *    CLOUDY    57  48  72 NW9       29.87R
MARSHALLTOWN   PTCLDY    55  47  74 W10       29.87R
NEWTON *       CLOUDY    59  46  63 NW9       29.87S
PELLA *        CLOUDY    58  49  73 NW3       29.89R
PERRY *          N/A     53  49  87 W6        29.91R
$$

IAZ004>006-015-016-023>025-035-036-291100-
   NORTH CENTRAL IOWA

CITY           SKY/WX    TMP DP  RH WIND       PRES   REMARKS
ALGONA *       CLEAR     54  46  76 NW14      29.85R
CLARION *      CLEAR     54  46  76 W10       29.86R
ESTHERVILLE    CLEAR     50  45  83 NW12      29.85R
FORT DODGE *   PTCLDY    54  43  66 CALM      29.89S
MASON CITY     CLEAR     52  43  71 NW15      29.83R
FOREST CITY *    N/A     52  37  58 NW10      29.83R
WEBSTER CITY * CLEAR     54  45  71 W9        29.86R
IOWA FALLS *   MOCLDY    55  46  73 W9        29.88R
$$

IAZ007>011-017>019-026>030-037>042-050>054-066-291100-
   NORTHEAST IOWA

CITY           SKY/WX    TMP DP  RH WIND       PRES   REMARKS
CEDAR RAPIDS   CLOUDY    54  49  83 W8        29.85R
CHARLES CITY * CLEAR     54  45  71 W8        29.83R
CLINTON *      CLOUDY    55  50  83 W8        29.84R
DECORAH *      CLEAR     54  45  71 CALM      29.78R
DUBUQUE        CLOUDY    51  47  86 SW6       29.82R
MONTICELLO *   CLOUDY    55  48  76 SW8       29.83R
OELWEIN *      MOCLDY    55  46  71 SW8       29.84R
WATERLOO       CLOUDY    57  44  62 W8        29.84R
$$

IAZ064-065-067-068-078-291100-
   EAST CENTRAL IOWA

CITY           SKY/WX    TMP DP  RH WIND       PRES   REMARKS
DAVENPORT      CLOUDY    58  48  69 W7        29.85R
IOWA CITY      CLOUDY    57  49  74 W6        29.87R
MT. PLEASANT * CLOUDY    55  49  80 SW6       29.86S
MUSCATINE *    CLOUDY    59  48  67 W3        29.86R
QUAD CITIES    PTCLDY    57  48  72 W3        29.84R
$$

IAZ062-063-075>077-085>089-095>099-291100-
   SOUTHEAST IOWA

CITY           SKY/WX    TMP DP  RH WIND       PRES   REMARKS
BURLINGTON     PTCLDY    55  50  83 SW6       29.85S
FAIRFIELD *    CLOUDY    57  46  67 SW5       29.85S
FORT MADISON * PTCLDY    57  50  77 SW5       29.87F
KEOKUK *       CLEAR     55  50  82 SW5       29.86F
OSKALOOSA *    MOCLDY    57  48  72 W3        29.87R
CENTERVILLE *  MOCLDY    57  46  67 SW3       29.90R
OTTUMWA        MOCLDY    56  49  77 W7        29.86R
$$

ABBREVIATIONS USED IN REMARKS
   TC - TEMPERATURES IN CELSIUS
  WCI - WIND CHILL INDEX
   HX - HEAT INDEX
  VSB - VISIBILITY
$$




USA.gov is the U.S. government's official web portal to all federal, state and local government web resources and services.